This is the latest recevied weather packets stored in our database for station/object HS3MXC-1. If no packets are shown the sender has not sent any weather packets the latest 10 day(s).
| Time | Temp. | Humidity | Pressure | Rain* | Wind** | Luminosity | Snow |
|---|---|---|---|---|---|---|---|
| 1777797517 | 36.11° C | 49% | 991.6 hPa | - | - | - | - |
| 1777797211 | 36.11° C | 49% | 991.7 hPa | - | - | - | - |
| 1777795837 | 36.11° C | 49% | 991.8 hPa | - | - | - | - |
| 1777795526 | 35.56° C | 51% | 992 hPa | - | - | - | - |
| 1777794206 | 36.67° C | 50% | 991.9 hPa | - | - | - | - |
| 1777793900 | 36.11° C | 51% | 992.1 hPa | - | - | - | - |
| 1777793509 | 35.56° C | 52% | 992.1 hPa | - | - | - | - |
| 1777793361 | 36.11° C | 51% | 992.2 hPa | - | - | - | - |
| 1777793055 | 36.11° C | 50% | 992.1 hPa | - | - | - | - |
| 1777792749 | 35.56° C | 51% | 992.3 hPa | - | - | - | - |
| 1777792442 | 35.56° C | 52% | 992.4 hPa | - | - | - | - |
| 1777792136 | 35.56° C | 52% | 992.4 hPa | - | - | - | - |
| 1777791829 | 35.56° C | 53% | 992.5 hPa | - | - | - | - |
| 1777791523 | 35.56° C | 53% | 992.7 hPa | - | - | - | - |
| 1777791217 | 35.56° C | 53% | 992.9 hPa | - | - | - | - |
| 1777790910 | 35.56° C | 53% | 993.1 hPa | - | - | - | - |
| 1777790603 | 35.56° C | 53% | 993.3 hPa | - | - | - | - |
| 1777790297 | 35.56° C | 53% | 993.4 hPa | - | - | - | - |
| 1777789991 | 35° C | 54% | 993.7 hPa | - | - | - | - |
| 1777789069 | 35° C | 54% | 994 hPa | - | - | - | - |
| 1777788763 | 35° C | 54% | 994.1 hPa | - | - | - | - |
| 1777788452 | 35° C | 54% | 994.2 hPa | - | - | - | - |
| 1777788146 | 35° C | 54% | 994.3 hPa | - | - | - | - |
| 1777787840 | 35° C | 54% | 994.5 hPa | - | - | - | - |
| 1777787532 | 35.56° C | 53% | 994.7 hPa | - | - | - | - |
* Rain since midnight (hover to see other rain measurements)
** Current wind speed in m/s (hover to see current wind gust speed)